Regional Weather Roundup
Issued by NWS

Home | Current Version | Previous Version | Text Only | Print | Product List | Glossary Off
Versions: 1 2 3 4 5 6 7 8 9 10 11 12 13 14 15 16 17 18 19 20 21 22 23 24 25 26 27 28 29 30 31 32 33 34 35 36 37 38 39 40 41 42 43 44 45 46 47 48 49 50

000
ASUS43 KLSX 132157
RWRMO

WEATHER SUMMARY FOR MISSOURI
NATIONAL WEATHER SERVICE SPRINGFIELD MO
400 PM CST WED DEC 13 2017

NOTE: "FAIR" INDICATES FEW OR NO CLOUDS BELOW 12,000 FEET WITH NO
       SIGNIFICANT WEATHER AND/OR OBSTRUCTIONS TO VISIBILITY.
       CURRENT SKY AND/OR WEATHER CONDITIONS ARE NOT AVAILABLE FOR
       CHILLICOTHE AND FARMINGTON.

MOZ001>031-035>038-043-044-053-054-132300-
...NORTHERN AND WESTERN MISSOURI...

CITY           SKY/WX    TMP DP  RH WIND       PRES   REMARKS
KANSAS CTY INT CLEAR     55  27  34 NW21G28   29.77R
LEE`S SUMMIT   CLEAR     57  25  29 NW15G30   29.77R
ST JOSEPH      CLEAR     54  30  40 NW17G28   29.79R
CHILLICOTHE      N/A     54  27  35 NW13G31   29.73R

$$
MOZ066>068-077>081-088>096-101>105-132300-
...SOUTHWEST MISSOURI...

CITY           SKY/WX    TMP DP  RH WIND       PRES   REMARKS
SPRINGFIELD    CLEAR     58  26  29 W14       29.77R
JOPLIN         CLEAR     60  28  29 NW14      29.81R

$$
MOZ032>034-039>042-045>050-055>058-069>072-132300-
...CENTRAL MISSOURI...

CITY           SKY/WX    TMP DP  RH WIND       PRES   REMARKS
COLUMBIA       NOT AVBL
JEFFERSON CITY CLEAR     58  29  33 NW17G30   29.69R
SEDALIA        CLEAR     57  29  34 NW17G26   29.74R
WARRENSBURG    CLEAR     55  27  33 NW8       29.75S

$$
MOZ051-052-059>065-132300-
...EAST CENTRAL MISSOURI...

CITY           SKY/WX    TMP DP  RH WIND       PRES   REMARKS
ST LOUIS INTL  PTCLDY    55  33  43 NW18G31   29.60R

$$
MOZ072>076-082>087-097>100-106>115-132300-
...SOUTH CENTRAL AND SOUTHEAST MISSOURI...

CITY           SKY/WX    TMP DP  RH WIND       PRES   REMARKS
CAPE GIRARDEAU CLEAR     50  27  40 SW9       29.65S
POPLAR BLUFF   CLEAR     58  26  29 W13       29.68S
WEST PLAINS    CLEAR     58  24  27 NW16G23   29.73R

$$



USA.gov is the U.S. government's official web portal to all federal, state and local government web resources and services.